Regional Weather Roundup
Issued by NWS San Angelo, TX

Home | Current Version | Previous Version | Text Only | Print | Product List | Glossary On
Versions: 1 2 3 4 5 6 7 8 9 10 11 12 13 14 15 16 17 18 19 20 21 22 23 24 25 26 27 28 29 30 31 32 33 34 35 36 37 38 39 40 41 42 43 44 45 46 47 48 49 50
000
ASUS44 KSJT 311810
RWRSJT
WEST CENTRAL TEXAS REGIONAL WEATHER ROUNDUP
NATIONAL WEATHER SERVICE SAN ANGELO TX
100 PM CDT THU JUL 31 2014

NOTE: "FAIR" INDICATES FEW OR NO CLOUDS BELOW 12,000 FEET WITH NO
SIGNIFICANT WEATHER AND/OR OBSTRUCTIONS TO VISIBILITY.

TXZ049-054-064>066-071>073-076>078-098-099-113-114-127-128-139-140-
154-155-168>170-311900
...LOCATIONS ACROSS WEST CENTRAL TEXAS...

CITY           SKY/WX    TMP DP  RH WIND       PRES   REMARKS
SAN ANGELO     CLOUDY    82  63  52 N10       30.11S
ABILENE        CLOUDY    73  64  73 N15       30.12S
DYESS AFB      PTSUNNY   73  64  73 N16       30.12S
JUNCTION       PTSUNNY   87  66  49 N10       30.07F
SWEETWATER     CLOUDY    74  62  66 N9G18     30.19S
BROWNWOOD      CLOUDY    77  64  65 N8        30.07F
COLEMAN        CLOUDY    80  63  57 NE6       30.09F
SONORA         MOSUNNY   82  64  54 N12       30.14S
OZONA          FAIR      82  61  47 NE12G18   30.14F
BRADY          NOT AVBL
$$

TEXAS PANHANDLE/OKLAHOMA PANHANDLE

CITY           SKY/WX    TMP DP  RH WIND       PRES   REMARKS
AMARILLO       SUNNY     75  52  44 N10G18    30.25F
BORGER         MOSUNNY   76  54  46 N13       30.23F
CANADIAN       MOSUNNY   76  58  53 N8        30.18F
DALHART        PTSUNNY   73  53  49 MISG      30.28F
DUMAS          PTCLDY    72  54  52 E6        30.26S
GUYMON         NOT AVBL
HEREFORD       PTCLDY    76  51  41 N9        30.26S
PAMPA          PTCLDY    72  53  51 NE7G17    30.23F
PERRYTON       MOSUNNY   75  56  51 NE7       30.21F
$$

SOUTHERN PANHANDLE/SOUTH PLAINS/ROLLING PLAINS

CITY           SKY/WX    TMP DP  RH WIND       PRES   REMARKS
LUBBOCK        PTSUNNY   78  55  44 NE9G17    30.21F
SNYDER         CLOUDY    73  60  63 NE12      30.17S
CHILDRESS      PTSUNNY   76  61  59 NE9       30.16F
SEMINOLE       MOCLDY    76  56  50 NE8G16    30.21F
$$

PERMIAN BASIN

CITY           SKY/WX    TMP DP  RH WIND       PRES   REMARKS
MIDLAND        CLOUDY    78  61  55 NE10      30.18F
ODESSA         PTSUNNY   78  60  53 NE12      30.18F
WINK           CLOUDY    76  62  62 VRB3      30.17F
$$

FAR WEST/SOUTHWEST MOUNTAINS/TRANS PECOS

CITY           SKY/WX    TMP DP  RH WIND       PRES   REMARKS
ALPINE         CLOUDY    69  62  76 NE10      30.31S
DRYDEN           N/A     90  65  43 NE13G21   30.10F
EL PASO        PTSUNNY   82  59  45 CALM      30.18F
FORT STOCKTON  CLOUDY    74  61  63 N13       30.19F
GUADALUPE PASS LGT RAIN  60  60 100 E24       30.29F VSB<1/4
MARFA          SUNNY     72  61  68 NE20      30.27F
PECOS          CLOUDY    73  62  68 CALM      30.18F
$$

DALLAS/FORT WORTH METROPLEX

CITY           SKY/WX    TMP DP  RH WIND       PRES   REMARKS
DFW AIRPORT    CLOUDY    75  68  78 NW16      29.99R
FTW MEACHAM    CLOUDY    78  68  71 NW14      30.00S
DAL-EXECUTIVE  CLOUDY    82  70  66 NW14      29.97R
GRAND PRAIRIE  CLOUDY    75  68  78 NW7       30.00R
ADDISON        NOT AVBL
MESQUITE       CLOUDY    84  68  58 W8          N/A
LANCASTER      MOCLDY    87  67  50 W5        29.96F
$$

NORTH CENTRAL TEXAS

CITY           SKY/WX    TMP DP  RH WIND       PRES   REMARKS
SHRMAN/DENISON CLOUDY    71  68  92 N10       30.02S FOG
GAINESVILLE    CLOUDY    71  67  88 N10G16    30.05S
BRIDGEPORT     CLOUDY    73  63  69 N7G16     30.06R
DENTON         CLOUDY    71  67  87 N9        30.01S
WAXAHACHIE     CLOUDY    84  69  60 W12G20    29.98S
GRANBURY       CLOUDY    80  67  65 N8        30.03S
$$

WESTERN NORTH TEXAS

CITY           SKY/WX    TMP DP  RH WIND       PRES   REMARKS
WICHITA FALLS  CLOUDY    74  67  78 N16       30.07S
VERNON         CLOUDY    73  63  71 N12       30.13S
BRECKENRIDGE   CLOUDY    79  64  60 N16       30.07S HAZE
COMANCHE       CLOUDY    79  65  62 N14       30.06F
$$

CENTRAL AND SOUTH CENTRAL TEXAS

CITY           SKY/WX    TMP DP  RH WIND       PRES   REMARKS
AUSTIN/BERGSTM CLOUDY    89  72  56 VRB6      29.99S
WACO           PTSUNNY   88  69  53 W12G17    29.98S
HILLSBORO      CLOUDY    80  69  70 W10G18    30.00S
TEMPLE         CLOUDY    84  70  61 W6        29.97F
KILLEEN-GRAY   PTSUNNY   84  70  61 NW6       30.01F
FORT HOOD      PTSUNNY   88  69  53 W12       30.00F
GEORGETOWN     CLOUDY    88  73  62 SW7       30.00
LAGO VISTA     MOCLDY    86  70  58 W3        30.03F
SAN MARCOS     MOSUNNY   90  70  51 SW6       30.00F
NEW BRAUNFELS  CLOUDY    93  71  48 VRB7      29.98F
RANDOLPH AFB   MOSUNNY   90  71  53 SW3       30.00F
SAN ANTONIO    PTSUNNY   89  72  56 VRB5      30.00F
STINSON        MOSUNNY   93  72  50 CALM      29.97F
PLEASANTON     NOT AVBL
LA GRANGE      PTSUNNY   89  75  63 CALM      29.97S
GIDDINGS       NOT AVBL
$$

EAST TEXAS

CITY           SKY/WX    TMP DP  RH WIND       PRES   REMARKS
PARIS          CLOUDY    68  63  83 E13       30.01S
CLARKSVILLE    CLOUDY    70  68  93 E8        30.02F
TYLER          LGT RAIN  73  70  90 S9        29.98F
LONGVIEW       LGT RAIN  72  68  87 SE8       29.99F
PALESTINE      NOT AVBL
NACOGDOCHES    CLOUDY    73  72  94 SE9       30.01F
$$

TEXAS HILL COUNTRY AND EDWARDS PLATEAU

CITY           SKY/WX    TMP DP  RH WIND       PRES   REMARKS
LLANO          MOCLDY    84  66  54 N9        30.07S
HORSESHOE BAY  FAIR      86  68  56 N3        30.03S
KERRVILLE      MOSUNNY   89  71  55 N9        30.05S
FREDERICKSBRG  CLOUDY    87  67  52 N5        30.05F
ROCKSPRINGS    MOCLDY    88  68  51 N7        30.10F
HONDO          MOSUNNY   87  72  60 CALM      30.02F
UVALDE         MOCLDY    90  73  58 CALM      30.00F
DEL RIO        PTSUNNY   90  70  51 VRB7      30.00F
$$

SOUTHEAST TEXAS

CITY           SKY/WX    TMP DP  RH WIND       PRES   REMARKS
COLLEGE STN    PTSUNNY   86  73  65 SW7       29.99F
CALDWELL       MOCLDY    88  73  62 SW8       30.02F
CROCKETT       CLOUDY    84  81  89 SE6       30.01F
BRENHAM        PTSUNNY   89  71  55 S5        29.99F
HUNTSVILLE     PTSUNNY   87  74  64 S10       30.00F
CONROE         PTSUNNY   87  74  64 S7        30.00F
HOUSTON BUSH   CLOUDY    88  72  58 SW3       29.99F
HOUSTON HOBBY  PTSUNNY   89  72  56 W6        29.98F
PERLAND        PTSUNNY   90  72  55 S5        30.00F
WHARTON        PTCLDY    92  72  51 SW7G16    29.98F
$$

THE UPPER TEXAS COAST

CITY           SKY/WX    TMP DP  RH WIND       PRES   REMARKS
ORANGE         MOCLDY    88  71  56 SE7       30.03S
PORT ARTHUR    PTSUNNY   90  74  59 E7        30.00S
GALVESTON      MOSUNNY   90  74  59 S12       30.00F
ANGLETON       PTSUNNY   90  75  61 S9        29.99S
BAY CITY       MOCLDY    92  75  56 SW7       29.98S
$$

TEXAS COASTAL BEND, RIO GRANDE PLAINS DEEP SOUTH TEXAS

CITY           SKY/WX    TMP DP  RH WIND       PRES   REMARKS
VICTORIA       MOSUNNY   96  72  45 S13G21    29.97S
BEEVILLE       FAIR      97  66  35 S13       29.95F
ROCKPORT       SUNNY     90  75  61 S12G20    29.97S
PORT ARANSAS   CLEAR     87  78  74 SE10      29.97S
PORT LAVACA    PTCLDY    92  74  55 S14G20    29.97S
CORPUS CHRISTI PTSUNNY   96  72  45 S9G21     29.94F
KINGSVILLE NAS PTSUNNY   99  72  41 S8G18     29.93F
COTULLA        SUNNY     95  69  42 VRB3      29.95F
LAREDO         SUNNY     95  70  44 E8        29.95F
BROWNSVILLE    MOSUNNY   95  73  48 S20G28    29.93F
PORT ISABEL    SUNNY     97  71  42 SE18G26   29.92F
HEBBRONVILLE   CLEAR     96  62  33 SE9       29.95F
MCALLEN        SUNNY     98  67  36 S14G23    29.91F
WESLACO        SUNNY     98  66  34 SE14G23   29.91F
FALFURRIAS     CLEAR     88  57  34 SE9G18    29.92F
EDINBURG       CLEAR     99  63  30 S13G25    29.91F
$$



USA.gov is the U.S. government's official web portal to all federal, state and local government web resources and services.